Powrót do katalogu

SL-16 DEB

AktywnyLEO
NORAD 22604·DEBRIS·🇷🇺 Russia

Wystrzelony Mar 26, 1993 z Baikonur Cosmodrome

Loading…

Następne Przeloty (najbliższe 24 godziny)

TLE

ŚwieżeSource: Space-Track

Epoka: Sep 14, 2026, 12:55 UTC

1 22604U 93016N   26257.53841645 -.00000004  00000-0  36713-4 0  9990
2 22604  70.9930 308.3434 0171381 310.4420 117.2135 13.76507899681329

Śledź SL-16 DEB w czasie rzeczywistym z AllMySat

Download on the App Store